Regional Weather Roundup
Issued by NWS Boston, MA

Home | Current Version | Previous Version | Text Only | Print | Product List | Glossary On
Versions: 1 2 3 4 5 6 7 8 9 10 11 12 13 14 15 16 17 18 19 20 21 22 23 24 25 26 27
000
ASUS41 KBOX 191510
RWRBOX

REGIONAL WEATHER ROUNDUP
NATIONAL WEATHER SERVICE TAUNTON MA
1000 AM EST THU JAN 19 2017

NOTE:  "FAIR" INDICATES FEW OR NO CLOUDS BELOW 12,000 FEET WITH NO
SIGNIFICANT WEATHER AND/OR OBSTRUCTIONS TO VISIBILITY.

MAZALL-191600-
EASTERN MASSACHUSETTS

CITY           SKY/WX    TMP DP  RH WIND       PRES   REMARKS
BOSTON         PTSUNNY   38  35  89 CALM      30.01S
BEVERLY        CLOUDY    34  32  92 W5        30.00R WCI  30
LAWRENCE       CLOUDY    34  32  92 VRB3      30.01S
BEDFORD        CLOUDY    33  30  88 NW3       29.99S FOG
BLUE HILL        N/A     33  33 100 W7        29.97S WCI  27
NORWOOD        MOSUNNY   40  36  86 W3        30.00F
MARSHFIELD     MOSUNNY   37  36  93 CALM      30.00S
PLYMOUTH       CLOUDY    35  34  96 SW7       30.00F FOG     WCI  29
TAUNTON        CLOUDY    36  34  92 SW3       30.00S FOG
NEW BEDFORD    SUNNY     40  36  86 VRB6      30.00S
$$

MAZALL-191600-
CAPE COD AND THE ISLANDS

CITY           SKY/WX    TMP DP  RH WIND       PRES   REMARKS
FALMOUTH       FOG       36  36 100 MISG      30.01S VSB 1
HYANNIS        MOSUNNY   41  37  86 NW3       29.99
CHATHAM        CLOUDY    42  38  85 N5        30.00S
PROVINCETOWN   CLOUDY    39  36  89 NW5       30.01S
NANTUCKET      MOSUNNY   41  39  93 N8        30.00S
MARTHAS VNYRD  MOSUNNY   41  38  89 NW5       30.01S
$$

MAZALL-191600-
CENTRAL AND WESTERN MASSACHUSETTS

CITY           SKY/WX    TMP DP  RH WIND       PRES   REMARKS
WORCESTER      SUNNY     35  31  85 W10       29.97R WCI  27
FITCHBURG      SUNNY     39  34  82 NW6       30.00R
ORANGE         CLOUDY    33  33 100 CALM      30.00R FOG
SPRINGFIELD    MOSUNNY   38  35  91 CALM      30.01R
WESTFIELD      CLOUDY    41  35  79 CALM      30.01R
NORTH ADAMS    LGT RAIN  38  33  82 W7        30.02R
PITTSFIELD     CLOUDY    36  32  85 W14       29.99R WCI  27
$$

RIZALL-191600-
RHODE ISLAND

CITY           SKY/WX    TMP DP  RH WIND       PRES   REMARKS
PROVIDENCE     MOSUNNY   42  35  76 W8        30.01S
NEWPORT        SUNNY     40  37  89 W5        30.00S
SMITHFIELD     MOSUNNY   39  36  89 W7        29.99S
WESTERLY       CLOUDY    40  34  79 SW5       30.03R
$$

CTZALL-191600-
CONNECTICUT

CITY           SKY/WX    TMP DP  RH WIND       PRES   REMARKS
BRADLEY INTL   PTSUNNY   40  36  86 CALM      30.02R
HARTFORD       CLOUDY    41  35  79 VRB3      30.03S
BRIDGEPORT     CLOUDY    42  36  79 SW7       30.04
DANBURY        PTSUNNY   39  36  89 VRB3      30.04S
GROTON         CLOUDY    41  35  79 W3        30.03R
NEW HAVEN      MOSUNNY   39  36  89 W5        30.04
CHESTER        CLOUDY    41  36  81 NW6       30.02R
MERIDEN        PTSUNNY   39  34  82 S3        30.03S
WILLIMANTIC    SUNNY     40  36  86 CALM      30.02S
OXFORD         PTSUNNY   39  36  87 NW6       30.03S
$$

MEZ002-015-021-024-NHZ003-005-008-011-012-014-VTZ005-008-191600-
NORTHERN NEW ENGLAND

CITY           SKY/WX    TMP DP  RH WIND       PRES   REMARKS
PORTLAND ME    CLOUDY    29  25  85 CALM      30.00S
BANGOR ME      LGT SNOW  25  23  92 CALM      29.98S FOG
CONCORD NH     CLOUDY    31  28  89 VRB3      30.00R
MANCHESTER NH  NOT AVBL
NASHUA NH      NOT AVBL
PORTSMOUTH NH  MOSUNNY   32  28  83 SW3       29.98S
JAFFREY NH     NOT AVBL
KEENE NH       NOT AVBL
BURLINGTON VT  CLOUDY    37  35  92 CALM      30.01R
MT. WASHINGTON NOT AVBL
$$

NYZ052-076-191600-
EASTERN NEW YORK

CITY           SKY/WX    TMP DP  RH WIND       PRES   REMARKS
ALBANY         CLOUDY    40  35  83 SW5       30.05R
NEW YORK CITY  MOSUNNY   45  36  70 NW10      30.06R
$$

ANZALL-191600-
MARINE OBSERVATIONS

STATION/POSITION TIME  TEMP    WIND        PRES    VSBY  WAVE
                       AIR SEA DIR/SP/G                  HT/PER
                 (UTC) (F)     (DEG/KT/KT) (MB)    (MI)  (FT/S)
BOSTON BUOY      1450   38 44  260/  4/  6 1015.7S         6/ 9
BUZZARDS BAY     1400   38     320/  3/  4 1016.8R
NANTUCKET SOUND  1350   38 43  330/  8/ 10 1015.8          2/ 5
MASS BAY-STELLWA 1404   36 44  250/  2/  6 1015.4F  1 7/8  6/ 8
ISLE OF SHOALS   1400   32     300/  5/  7 1015.6F
S OF BLOCK IS    1455      46                N/A           5/11
$$

......................KEY.........................
  SKY/WX - SKY CONDITION/PRESENT WEATHER
  TMP    - TEMPERATURE IN FAHRENHEIT
  DWPT   - DEWPOINT IN FAHRENHEIT
  RH     - RELATIVE HUMIDITY IN PERCENT
  WIND   - DIRECTION AND SPEED IN MPH
  PRES   - MEAN SEA LEVEL PRESSURE IN INCHES OF HG
  WCI    - WIND CHILL INDEX
  VSB    - VISIBILITY IN MILES
  HX     - HEAT INDEX
  TC     - TEMPERATURE IN CELSIUS
  VRB    - VARIABLE WIND DIRECTION
  N/A    - NOT AVAILABLE




USA.gov is the U.S. government's official web portal to all federal, state and local government web resources and services.